HASTNG-WX Weather Reports


time (UTC)temp
F
wind
direction
speed
knots
gust
knots
rain 1hr
in
rain 24hr
in
rain mn
in
humidity
%
barometer
mb
20260503021529 39 228 4.3 0.0 0.00 0.00 0.00 64 986.9
20260503020056 39 230 4.3 0.0 0.00 0.00 0.00 64 986.9
20260503014529 39 237 4.3 0.0 0.00 0.00 0.00 61 986.3
20260503013047 40 238 4.3 0.0 0.00 0.00 0.00 61 986.3
20260503011529 40 232 4.3 0.0 0.00 0.00 0.00 61 986.3
20260503010055 41 236 4.3 0.0 0.00 0.00 0.00 61 986.3
20260503004529 42 237 4.3 0.0 0.00 0.00 0.00 48 987.0
20260503003043 43 231 3.5 0.0 0.00 0.00 0.00 48 987.3
20260503001529 44 245 3.5 0.0 0.00 0.00 0.00 48 987.3
20260503000055 45 262 3.5 0.0 0.00 0.00 0.00 48 987.3
20260502234530 45 278 5.2 0.0 0.00 0.00 0.00 41 987.0
20260502233042 46 266 7.0 0.0 0.00 0.00 0.00 43 987.1
20260502231530 46 267 7.8 0.0 0.00 0.00 0.00 43 987.1
20260502230056 46 271 8.7 0.0 0.00 0.00 0.00 43 987.1
20260502224530 47 273 9.6 0.0 0.00 0.00 0.00 40 987.5
20260502223048 47 270 9.6 0.0 0.00 0.00 0.00 42 988.1
20260502221530 47 270 9.6 0.0 0.00 0.00 0.00 42 988.1
20260502220055 47 270 9.6 0.0 0.00 0.00 0.00 42 988.1
20260502214530 47 271 9.6 0.0 0.00 0.00 0.00 44 988.3
20260502213048 47 271 8.7 0.0 0.00 0.00 0.00 39 987.9
20260502211530 47 266 8.7 0.0 0.00 0.00 0.00 39 987.8
20260502210058 47 264 8.7 0.0 0.00 0.00 0.00 39 987.8
20260502204530 47 265 8.7 0.0 0.00 0.00 0.00 42 988.2
20260502203048 47 267 9.6 0.0 0.00 0.00 0.00 39 988.8
20260502201530 47 269 9.6 0.0 0.00 0.00 0.00 39 988.8
20260502200055 47 270 9.6 0.0 0.00 0.00 0.00 39 988.8
20260502194530 47 271 9.6 0.0 0.00 0.00 0.00 43 988.9
20260502193043 47 274 9.6 0.0 0.00 0.00 0.00 43 988.9
20260502191530 47 276 9.6 0.0 0.00 0.00 0.00 43 989.0
20260502190055 47 276 10.4 0.0 0.00 0.00 0.00 43 989.0
20260502184529 47 278 9.6 0.0 0.00 0.00 0.00 45 988.8
20260502183049 46 281 8.7 0.0 0.00 0.00 0.00 42 988.9
20260502181529 47 285 7.8 0.0 0.00 0.00 0.00 42 988.9
20260502163049 46 275 7.0 0.0 0.00 0.00 0.00 40 988.6
20260502161529 45 279 7.0 0.0 0.00 0.00 0.00 40 988.6
20260502151530 43 288 5.2 0.0 0.00 0.00 0.00 48 988.7
20260502123047 35 319 4.3 0.0 0.00 0.00 0.00 80 988.9
20260502121529 34 322 4.3 0.0 0.00 0.00 0.00 80 988.9
20260502114530 33 311 3.5 0.0 0.00 0.00 0.00 85 988.6
20260502113051 32 294 1.7 0.0 0.00 0.00 0.00 84 988.7
20260502111530 31 275 1.7 0.0 0.00 0.00 0.00 84 988.7
20260502110058 31 275 1.7 0.0 0.00 0.00 0.00 84 988.7
20260502104529 31 270 1.7 0.0 0.00 0.00 0.00 82 988.4
20260502103048 31 265 1.7 0.0 0.00 0.00 0.00 87 988.8
20260502101530 31 252 1.7 0.0 0.00 0.00 0.00 87 988.8
20260502091529 31 255 1.7 0.0 0.00 0.00 0.00 87 988.3
20260502071530 32 301 2.6 0.0 0.00 0.00 0.00 81 987.5
20260502070055 32 311 3.5 0.0 0.00 0.00 0.00 81 987.5
20260502064530 32 306 2.6 0.0 0.00 0.00 0.00 77 988.5
20260502063049 32 301 2.6 0.0 0.00 0.00 0.00 79 988.4
20260502061529 33 298 3.5 0.0 0.00 0.00 0.00 79 988.4
20260502060105 33 300 3.5 0.0 0.00 0.00 0.00 79 988.4
20260502054530 33 304 3.5 0.0 0.00 0.00 0.00 72 987.5
20260502053048 33 304 4.3 0.0 0.00 0.00 0.00 77 988.1
20260502051529 33 300 3.5 0.0 0.00 0.00 0.00 77 988.1
20260502050058 34 306 3.5 0.0 0.00 0.00 0.00 77 988.1
20260502044530 34 311 3.5 0.0 0.00 0.00 0.00 68 987.6
20260502043047 34 337 4.3 0.0 0.00 0.00 0.00 73 987.8
20260502041529 34 333 5.2 0.0 0.00 0.00 0.00 73 987.8
20260502040057 35 313 4.3 0.0 0.00 0.00 0.00 73 987.8
20260502034529 35 298 2.6 0.0 0.00 0.00 0.00 63 987.2
20260502033049 36 313 3.5 0.0 0.00 0.00 0.00 70 986.8
20260502031529 36 319 3.5 0.0 0.00 0.00 0.00 70 986.8
20260502030056 36 309 3.5 0.0 0.00 0.00 0.00 70 986.8
20260502024529 36 298 3.5 0.0 0.00 0.00 0.00 62 986.2
20260502023046 37 310 6.1 0.0 0.00 0.00 0.00 64 987.2